Tracking 29777 objects as of 5-Oct-2024
HD Live streaming from Space Station
objects crossing your sky now

GUARDIAN

Track GUARDIAN now!
10-day predictions


NORAD ID: 52775
Int'l Code: 2022-057AV
Perigee: 462.7 km
Apogee: 472.3 km
Inclination: 97.6 °
Period: 93.8 minutes
Semi major axis: 6838 km
RCS: Unknown
Launch date: May 25, 2022
Source: Spain (SPN)
Launch site: AIR FORCE EASTERN TEST RANGE (AFETR)
Your satellite tracking list
Your tracking list is empty




NASA's NSSDC Master Catalog

Two Line Element Set (TLE):
1 52775U 22057AV  24279.14233592  .00065150  00000-0  18940-2 0  9996
2 52775  97.5864  44.0674 0007058 133.0655 227.1179 15.35195689131113
Source of the keplerian elements: AFSPC